Date String (YYYY-MM-DD hh:mm:ss) UTC,Instrument flags,Ambient pressure (hPa),Sample flow (lpm),Bypass flow (lpm),Sample temperature (°C),Ambient temperature (°C),ASC tube jacket temperature (°C),LED temperature (°C),Box temperature (°C),Sample RH (%),Span deviation,Mass concentration (μg/m³),Mass concentration (μg/m³),Mass concentration (μg/m³)
DateTimeUTC,F1_M11,P_M11,Q1_M11,Q2_M11,T1_M11,T2_M11,T3_M11,T4_M11,T5_M11,U1_M11,ZSPAN_M11,X0_M11,X2_M11,X1_M11
2022-10-15 01:00:00,,0823.5,5.02,0.00,29.5,28.0,00.0,38.3,31.4,08.8,0000.0,0013.66,0003.98,0002.84
2022-10-15 01:01:00,,0823.6,4.99,0.00,29.6,28.1,00.0,38.3,31.5,08.8,0000.0,0013.81,0003.99,0002.86
2022-10-15 01:02:00,,0823.6,4.99,0.00,29.6,28.2,00.0,38.4,31.5,08.9,0000.0,0014.38,0003.97,0002.88
2022-10-15 01:03:00,,0823.6,5.00,0.00,29.6,28.3,00.0,38.4,31.5,08.7,0000.0,0014.43,0004.01,0002.89
2022-10-15 01:04:00,,0823.6,4.99,0.00,29.6,28.4,00.0,38.4,31.5,08.8,0000.0,0013.71,0004.00,0002.90
2022-10-15 01:05:00,,0823.6,5.02,0.00,29.6,28.4,00.0,38.4,31.6,08.8,0000.0,0013.04,0004.00,0002.91
2022-10-15 01:06:00,,0823.6,4.99,0.00,29.7,28.5,00.0,38.4,31.6,08.7,0000.0,0012.85,0003.99,0002.91
2022-10-15 01:07:00,,0823.7,4.99,0.00,29.7,28.5,00.0,38.4,31.6,08.7,0000.0,0013.57,0003.98,0002.92
2022-10-15 01:08:00,,0823.7,4.99,0.00,29.7,28.6,00.0,38.4,31.6,08.5,0000.0,0013.54,0003.98,0002.92
2022-10-15 01:09:00,,0823.7,5.02,0.00,29.7,28.6,00.0,38.5,31.7,08.4,0000.0,0012.98,0003.95,0002.91
2022-10-15 01:10:00,,0823.7,5.00,0.00,29.8,28.6,00.0,38.5,31.7,08.3,0000.0,0012.35,0003.92,0002.92
2022-10-15 01:11:00,,0823.7,5.00,0.00,29.8,28.7,00.0,38.5,31.8,08.3,0000.0,0011.60,0003.91,0002.92
2022-10-15 01:12:00,,0823.7,5.00,0.00,29.8,28.7,00.0,38.5,31.8,08.3,0000.0,0011.45,0003.86,0002.91
2022-10-15 01:13:00,,0823.7,5.00,0.00,29.8,28.6,00.0,38.5,31.8,08.2,0000.0,0011.63,0003.84,0002.90
2022-10-15 01:14:00,,0823.7,5.02,0.00,29.8,27.4,00.0,38.5,31.6,08.2,0000.0,0011.67,0003.83,0002.90
2022-10-15 01:15:00,,0823.7,5.00,0.00,29.8,26.4,00.0,38.4,31.5,08.3,0000.0,0011.65,0003.81,0002.89
2022-10-15 01:16:00,,0823.7,5.00,0.00,29.7,26.4,00.0,38.4,31.4,08.3,0000.0,0012.48,0003.80,0002.90
2022-10-15 01:17:00,,0823.7,4.99,0.00,29.6,26.6,00.0,38.4,31.3,08.3,0000.0,0011.70,0003.76,0002.90
2022-10-15 01:18:00,,0823.7,5.01,0.00,29.5,27.0,00.0,38.4,31.3,08.6,0000.0,0010.74,0003.73,0002.88
2022-10-15 01:19:00,,0823.7,4.98,0.00,29.5,27.2,00.0,38.4,31.3,08.8,0000.0,0011.10,0003.74,0002.88
2022-10-15 01:20:00,,0823.7,5.02,0.00,29.5,27.5,00.0,38.3,31.3,08.7,0000.0,0011.27,0003.74,0002.87
2022-10-15 01:21:00,,0823.7,4.99,0.00,29.5,27.7,00.0,38.3,31.3,08.7,0000.0,0011.38,0003.74,0002.86
2022-10-15 01:22:00,,0823.7,5.02,0.00,29.5,27.8,00.0,38.3,31.3,08.7,0000.0,0011.08,0003.72,0002.86
2022-10-15 01:23:00,,0823.8,4.99,0.00,29.5,28.0,00.0,38.3,31.4,08.6,0000.0,0011.79,0003.74,0002.86
2022-10-15 01:24:00,,0823.8,5.02,0.00,29.5,28.1,00.0,38.3,31.4,08.5,0000.0,0011.95,0003.75,0002.85
2022-10-15 01:25:00,,0823.7,4.99,0.00,29.5,28.1,00.0,38.3,31.5,08.5,0000.0,0012.99,0003.73,0002.85
2022-10-15 01:26:00,,0823.8,4.99,0.00,29.6,28.2,00.0,38.3,31.5,08.5,0000.0,0013.04,0003.73,0002.84
2022-10-15 01:27:00,,0823.8,5.02,0.00,29.6,28.3,00.0,38.3,31.5,08.4,0000.0,0012.28,0003.76,0002.82
2022-10-15 01:28:00,,0823.8,4.99,0.00,29.6,28.3,00.0,38.4,31.5,08.4,0000.0,0012.34,0003.77,0002.81
2022-10-15 01:29:00,,0823.8,4.99,0.00,29.6,28.4,00.0,38.4,31.5,08.3,0000.0,0012.47,0003.75,0002.81
2022-10-15 01:30:00,,0823.8,5.02,0.00,29.6,28.4,00.0,38.4,31.5,08.3,0000.0,0012.85,0003.73,0002.80
2022-10-15 01:31:00,,0823.8,4.99,0.00,29.7,28.4,00.0,38.4,31.5,08.2,0000.0,0012.98,0003.69,0002.80
2022-10-15 01:32:00,,0823.9,5.01,0.00,29.7,28.5,00.0,38.4,31.6,08.2,0000.0,0013.25,0003.67,0002.80
2022-10-15 01:33:00,,0823.9,4.99,0.00,29.7,28.5,00.0,38.4,31.6,08.2,0000.0,0013.09,0003.68,0002.81
2022-10-15 01:34:00,,0823.9,5.00,0.00,29.7,28.5,00.0,38.4,31.6,08.2,0000.0,0012.03,0003.69,0002.82
2022-10-15 01:35:00,,0823.9,5.02,0.00,29.7,28.6,00.0,38.5,31.7,08.1,0000.0,0012.32,0003.74,0002.82
2022-10-15 01:36:00,,0823.9,4.99,0.00,29.8,28.6,00.0,38.5,31.7,08.3,0000.0,0012.15,0003.73,0002.82
2022-10-15 01:37:00,,0824.0,4.99,0.00,29.8,28.6,00.0,38.5,31.7,08.5,0000.0,0012.29,0003.72,0002.81
2022-10-15 01:38:00,,0824.0,5.02,0.00,29.8,28.6,00.0,38.5,31.7,08.3,0000.0,0012.49,0003.70,0002.80
2022-10-15 01:39:00,,0824.0,4.99,0.00,29.8,28.6,00.0,38.5,31.8,08.0,0000.0,0012.39,0003.68,0002.80
2022-10-15 01:40:00,,0824.0,5.00,0.00,29.8,28.6,00.0,38.5,31.7,07.9,0000.0,0012.38,0003.68,0002.80
2022-10-15 01:41:00,,0824.0,5.01,0.00,29.8,28.6,00.0,38.6,31.8,07.8,0000.0,0012.06,0003.67,0002.79
2022-10-15 01:42:00,,0824.0,4.99,0.00,29.9,28.7,00.0,38.6,31.7,07.8,0000.0,0012.57,0003.66,0002.78
2022-10-15 01:43:00,,0824.0,5.00,0.00,29.9,28.7,00.0,38.6,31.7,07.5,0000.0,0012.17,0003.63,0002.76
2022-10-15 01:44:00,,0824.0,5.00,0.00,29.9,28.7,00.0,38.6,31.8,07.2,0000.0,0012.11,0003.59,0002.70
2022-10-15 01:45:00,,0824.0,4.99,0.00,29.9,28.7,00.0,38.6,31.8,07.1,0000.0,0011.98,0003.52,0002.64
2022-10-15 01:46:00,,0824.0,5.02,0.00,29.9,28.6,00.0,38.7,31.8,07.1,0000.0,0010.90,0003.39,0002.60
2022-10-15 01:47:00,,0824.0,4.99,0.00,29.9,27.4,00.0,38.6,31.7,06.9,0000.0,0010.58,0003.37,0002.56
2022-10-15 01:48:00,,0824.1,5.00,0.00,29.9,26.4,00.0,38.6,31.6,06.9,0000.0,0010.31,0003.32,0002.51
2022-10-15 01:49:00,,0824.0,5.00,0.00,29.8,26.3,00.0,38.5,31.5,06.8,0000.0,0009.83,0003.21,0002.44
2022-10-15 01:50:00,,0824.0,5.01,0.00,29.7,26.6,00.0,38.5,31.4,06.9,0000.0,0009.72,0003.16,0002.39
2022-10-15 01:51:00,,0824.0,4.98,0.00,29.6,26.9,00.0,38.5,31.4,06.9,0000.0,0009.87,0003.11,0002.32
2022-10-15 01:52:00,,0824.1,5.02,0.00,29.6,27.2,00.0,38.5,31.4,06.5,0000.0,0009.37,0003.00,0002.25
2022-10-15 01:53:00,,0824.1,4.99,0.00,29.6,27.4,00.0,38.4,31.4,06.4,0000.0,0008.33,0002.90,0002.17
2022-10-15 01:54:00,,0824.1,5.00,0.00,29.6,27.6,00.0,38.4,31.4,06.4,0000.0,0008.19,0002.81,0002.10
2022-10-15 01:55:00,,0824.1,5.00,0.00,29.6,27.8,00.0,38.4,31.4,06.4,0000.0,0008.32,0002.70,0002.05
2022-10-15 01:56:00,,0824.1,4.99,0.00,29.6,27.9,00.0,38.4,31.4,06.6,0000.0,0008.25,0002.63,0002.01
2022-10-15 01:57:00,,0824.1,5.01,0.00,29.6,28.0,00.0,38.4,31.4,06.9,0000.0,0008.18,0002.59,0001.98
2022-10-15 01:58:00,,0824.1,4.99,0.00,29.6,28.1,00.0,38.4,31.4,06.9,0000.0,0008.22,0002.51,0001.95
2022-10-15 01:59:00,,0824.1,4.99,0.00,29.6,28.1,00.0,38.4,31.4,06.9,0000.0,0008.34,0002.49,0001.94
